Iridium
NORAD ID: 25320
Int'l Code: 1998-026B
Perigee: 769.2 km
Apogee: 773.7 km
Inclination: 86.4 °
Period: 100.1 minutes
Semi major axis: 7142 km
Launch date: May 2, 1998
Source: United States (US)
Two Line Element Set (TLE):
1 25320U 98026B 13141.49350068 .00000307 00000-0 94720-4 0 8021
2 25320 086.3976 147.8217 0003133 146.6923 004.0494 14.38234002789567
Source:
NASA's NSSDC Master Catalog entry for IRIDIUM 71